Weather History for FBSK - August, 2013

Change the Weather History Date:

Friday, August 23, 2013

  Actual Average Record
Temperature  
Mean Temperature 58 °F -  
Max Temperature 73 °F 80 °F 90 °F (2012)
Min Temperature 42 °F 50 °F 33 °F (2014)
Degree Days  
Heating Degree Days 8    
Growing Degree Days 8 (Base 50)    
Moisture  
Dew Point 34 °F    
Average Humidity 39    
Maximum Humidity 63    
Minimum Humidity 12    
Precipitation  
Precipitation 0.00 in - - ()
Sea Level Pressure  
Sea Level Pressure 30.19 in    
Wind  
Wind Speed 8 mph ()    
Max Wind Speed 20 mph    
Max Gust Speed 28 mph    
Visibility 6.2 miles    
Events      
Averages and records for this station are not official NWS values.
T = Trace of Precipitation, MM = Missing Value Source: Averaged Metar Reports

Daily Weather History Graph

Daily Weather History Graph

Search for Another Location

Airport or City:

Trip Planner

Search our weather history database for the weather conditions in past years. The results will help you decide how hot, cold, wet, or windy it might be!

Date:

Astronomy

Aug. 23, 2013 Rise Set
Actual Time 6:36 AM CAT 6:01 PM CAT
Civil Twilight 6:13 AM CAT 6:24 PM CAT
Nautical Twilight 5:46 AM CAT 6:51 PM CAT
Astronomical Twilight 5:20 AM CAT 7:18 PM CAT
Moon 8:36 PM CAT (8/23) 7:55 AM CAT (8/23)
Length of Visible Light 12h 11m
Length of Day
11h 25m
Waning Gibbous, 93% of the Moon is Illuminated
Aug 23
Waning Gibbous
Aug 28
Last Quarter
Sep 5
New
Sep 12
First Quarter
Sep 19
Full

Hourly Weather History & Observations

Time (CAT) Temp. Windchill Dew Point Humidity Pressure Visibility Wind Dir Wind Speed Gust Speed Precip Events Conditions
12:00 AM 51.8 °F - 10.4 °F 19% 30.15 in - Variable 2.3 mph - N/A   Clear
1:00 AM 66.2 °F - 12.2 °F 12% 30.15 in - NNW 5.8 mph - N/A   Clear
2:00 AM 48.2 °F - 12.2 °F 24% 30.15 in - West 4.6 mph - N/A   Clear
3:00 AM 46.4 °F 45.2 °F 10.4 °F 23% 30.15 in - SW 3.5 mph - N/A   Clear
4:00 AM 42.8 °F 41.1 °F 12.2 °F 29% 30.18 in - NE 3.5 mph - N/A   Clear
5:00 AM 44.6 °F 43.1 °F 10.4 °F 25% 30.18 in - ENE 3.5 mph - N/A   Clear
6:00 AM 44.6 °F 40.2 °F 10.4 °F 25% 30.21 in - SE 8.1 mph - N/A   Clear
7:00 AM 48.2 °F - 12.2 °F 24% 30.24 in 6.2 mi SSE 10.4 mph - N/A   Mostly Cloudy
8:00 AM 53.6 °F - 28.4 °F 38% 30.27 in 6.2 mi ESE 9.2 mph - N/A   Overcast
9:00 AM 59.0 °F - 46.4 °F 63% 30.27 in 6.2 mi ENE 15.0 mph - N/A   Partly Cloudy
10:00 AM 62.6 °F - 48.2 °F 59% 30.27 in 6.2 mi ENE 19.6 mph - N/A   Mostly Cloudy
11:00 AM 64.4 °F - 48.2 °F 56% 30.27 in 6.2 mi NE 17.3 mph - N/A   Mostly Cloudy
12:00 PM 69.8 °F - 48.2 °F 46% 30.24 in 6.2 mi ENE 13.8 mph - N/A   Partly Cloudy
1:00 PM 69.8 °F - 46.4 °F 43% 30.21 in - ENE 17.3 mph - N/A   Clear
2:00 PM 71.6 °F - 44.6 °F 38% 30.15 in - NE 16.1 mph 27.6 mph N/A   Clear
3:00 PM 73.4 °F - 44.6 °F 36% 30.12 in - ENE 15.0 mph - N/A   Clear
4:00 PM 73.4 °F - 44.6 °F 36% 30.12 in - NNE 12.7 mph - N/A   Clear
5:00 PM 73.4 °F - 44.6 °F 36% 30.12 in - NE 10.4 mph - N/A   Clear
6:00 PM 69.8 °F - 44.6 °F 40% 30.12 in - ENE 10.4 mph - N/A   Clear
7:00 PM 68.0 °F - 44.6 °F 43% 30.15 in - ENE 10.4 mph - N/A   Clear
8:00 PM 64.4 °F - 46.4 °F 52% 30.18 in - ENE 11.5 mph - N/A   Clear
9:00 PM 64.4 °F - 48.2 °F 56% 30.18 in - ENE 11.5 mph - N/A   Clear
10:00 PM 62.6 °F - 48.2 °F 59% 30.18 in - ENE 10.4 mph - N/A   Clear
11:00 PM 60.8 °F - 48.2 °F 63% 30.21 in - ENE 10.4 mph - N/A   Clear